COSMOS 2520

Last updated on Aug. 10, 2020, 5:33 a.m. UTC

1 42907U 17046A   20222.85605017  .00000134  00000-0  00000-0 0  9998
2 42907   0.0263 107.3431 0000515  62.0090 142.6020  1.00271137 10965
UTC
Height (km)
Latitude
Longitude
Inclination
Orbital Period
UTC large
Height (km)
Speed (km/s)
/
Latitude / Longitude
Inclination (degrees)
Orbital Period (minutes)
Azimuth
Elevation
Range (km)
Doppler Factor
iOS Compass Heading
iOS Angle

Next 30 passes for location: Hong Kong

Rise time Rise Azimuth (degrees) Set time Set Azimuth (degrees) Duration Max altitude (degrees)

No matching passes for this satellites